[[{"header":{"parameterUnit":"m.s-1","parameterCategory":1,"la1":30.2991,"la2":30.254,"lo1":-89.0895,"lo2":-89.0444,"dy":0.0017,"dx":0.0017,"nx":28,"ny":28,"refTime":"2024-04-25T09:00:00:Z","depth":0,"parameterNumber":2,"parameterNumberName":"U-component_of_WINDS"},"data":[0,0,0,0,0,0,0,0,0,0,0,0,0,0,0,0,0,0,0,0,0,0,0,0,0,0,0,0,0,0,0,0,0,0,0,0,0,0,0,0,0,0,0,0,0,0,0,0,0,0,0,0,0,0,0,0,0,0,-5.3523,-5.3524,0,-5.3589,-5.359,-5.359,-5.3551,-5.3549,-5.3547,-5.3546,-5.3611,-5.3614,-5.3618,0,0,0,0,0,0,0,0,0,0,0,0,0,-5.3361,-5.3364,-5.3523,-5.3524,-5.3524,-5.3589,-5.359,-5.359,-5.3552,-5.3549,-5.3547,-5.3545,-5.361,-5.3614,-5.3618,0,0,0,0,0,0,0,0,0,0,0,0,0,-5.343,-5.3365,-5.3523,-5.3513,-5.3513,-5.3588,-5.359,-5.3591,-5.3552,-5.3549,-5.3546,-5.3544,-5.3608,-5.3613,-5.3619,-5.3707,0,0,-5.3635,-5.3637,0,0,0,0,0,0,0,0,-5.3426,-5.3436,-5.3513,-5.3514,-5.3513,-5.3559,-5.3556,-5.363,-5.3553,-5.3537,-5.3546,-5.3542,-5.3596,-5.3602,-5.362,-5.371,-5.3713,-5.3635,-5.3638,-5.364,-5.3642,0,0,0,0,0,0,0,-5.3421,-5.3433,-5.3549,-5.3515,-5.3515,-5.3504,-5.3511,-5.357,-5.3581,-5.3538,-5.3535,-5.3544,-5.3595,-5.3615,-5.3622,-5.3714,-5.3635,-5.364,-5.3643,-5.3645,-5.3879,-5.3882,0,0,0,0,0,0,-5.3417,-5.3429,-5.3547,-5.3551,-5.3462,-5.351,-5.3517,-5.3547,-5.3581,-5.3583,-5.3546,-5.3542,-5.3608,-5.3615,-5.3624,-5.3728,-5.364,-5.3645,-5.3648,-5.3876,-5.388,-5.3883,0,0,0,0,0,0,-5.3414,-5.3428,-5.3544,-5.3489,-5.3503,-5.3515,-5.355,-5.355,-5.357,-5.3587,-5.3588,-5.3565,-5.3606,-5.3616,-5.3687,-5.373,-5.3648,-5.3652,-5.3873,-5.3877,-5.3882,-5.3939,0,0,0,0,0,0,-5.341,-5.3427,-5.3461,-5.349,-5.3506,-5.3607,-5.3552,-5.3553,-5.3579,-5.3574,-5.3605,-5.3607,-5.3604,-5.3679,-5.3692,-5.3736,-5.3657,-5.3869,-5.3875,-5.388,-5.3933,-5.3945,-5.3955,0,0,0,0,0,-5.3404,-5.3475,-5.3463,-5.3478,-5.3549,-5.3609,-5.3618,-5.3615,-5.3583,-5.3617,-5.3628,-5.3606,-5.3724,-5.3687,-5.3701,-5.3747,-5.3866,-5.3873,-5.388,-5.3928,-5.3943,-5.3955,0,0,0,0,0,0,-5.3449,-5.3478,-5.3466,-5.3548,-5.3577,-5.3602,-5.3645,-5.363,-5.3667,-5.3661,-5.3655,-5.3662,-5.3735,-5.3748,-5.3706,-5.3834,-5.379,-5.38,-5.3822,-5.3836,-5.3847,-5.3841,-5.3661,0,0,0,0,0,-5.3469,-5.3516,-5.3539,-5.3609,-5.3624,-5.3633,-5.3658,-5.3653,-5.3682,-5.3694,-5.371,-5.3738,-5.3781,-5.381,-5.3851,-5.3936,-5.3942,-5.3975,-5.3986,-5.3995,-5.4003,-5.4048,-5.4063,-5.3906,-5.3906,-5.3906,0,0,-5.351,-5.3532,-5.3561,-5.3619,-5.364,-5.3688,-5.3643,-5.3695,-5.373,-5.3701,-5.3768,-5.3782,-5.3813,-5.3891,-5.3926,-5.3904,-5.4048,-5.4004,-5.4011,-5.4014,-5.4057,-5.4072,-5.4085,-5.3911,-5.391,-5.3909,0,0,-5.3608,-5.363,-5.3691,-5.3714,-5.3747,-5.3752,-5.3767,-5.3796,-5.3803,-5.3871,-5.385,-5.3892,-5.3967,-5.399,-5.4012,-5.4121,-5.4101,-5.4134,-5.419,-5.4234,-5.4247,-5.4257,-5.4294,-5.4308,-5.4143,-5.4143,-5.4143,0,-5.3654,-5.3726,-5.3724,-5.3778,-5.3803,-5.3781,-5.3841,-5.3864,-5.3909,-5.3926,-5.3902,-5.3996,-5.4015,-5.4098,-5.4125,-5.4144,-5.4159,-5.4129,-5.4245,-5.4256,-5.4266,-5.4301,-5.4316,-5.4146,-5.4146,-5.4146,-5.4145,0,-5.378,-5.3831,-5.3876,-5.392,-5.3951,-5.4008,-5.4014,-5.4045,-5.4038,-5.4046,-5.4115,-5.4138,-5.4183,-5.4203,-5.4196,-5.4285,-5.427,-5.4246,-5.4201,-5.4285,-5.4318,-5.4331,-5.4152,-5.415,-5.4149,-5.4148,0,0,-5.3907,-5.395,-5.3966,-5.3986,-5.4022,-5.4061,-5.4117,-5.4162,-5.4188,-5.4221,-5.4267,-5.4332,-5.431,-5.4334,-5.4331,-5.437,-5.4453,-5.4341,-5.4341,-5.4359,-5.455,-5.4566,-5.4582,-5.4442,-5.4444,-5.4446,-5.4546,0,-5.4006,-5.4104,-5.4104,-5.4195,-5.424,-5.4221,-5.427,-5.4297,-5.4306,-5.4346,-5.4357,-5.4402,-5.437,-5.4385,-5.4423,-5.4435,-5.449,-5.4428,-5.4483,-5.4485,-5.4473,-5.4599,-5.4616,-5.4709,-5.4559,-5.4562,-5.4563,0,-5.4134,-5.4171,-5.4266,-5.4295,-5.4315,-5.4359,-5.4399,-5.4439,-5.4469,-5.4473,-5.4501,-5.4492,-5.4548,-5.4504,-5.4582,-5.4539,-5.4562,-5.4571,-5.4575,-5.4577,-5.4527,-5.4603,-5.4739,-5.4752,-5.4584,-5.4582,-5.4581,0,-5.4213,-5.4288,-5.4354,-5.4372,-5.4408,-5.4439,-5.4456,-5.4484,-5.4511,-5.4547,-5.4564,-5.4606,-5.4629,-5.4662,-5.4664,-5.4632,-5.4741,-5.4697,-5.4745,-5.4745,-5.4766,-5.4764,-5.4906,-5.4786,-5.4786,-5.4785,-5.4785,0,-5.4322,-5.4381,-5.439,-5.4431,-5.4496,-5.4495,-5.456,-5.4573,-5.4599,-5.4641,-5.4628,-5.4668,-5.4669,-5.471,-5.4712,-5.4775,-5.4786,-5.479,-5.4789,-5.479,-5.4789,-5.4802,-5.4795,-5.4789,-5.4788,-5.4787,-5.4787,0,-5.4421,-5.443,-5.4501,-5.453,-5.4539,-5.4585,-5.461,-5.4648,-5.4657,-5.4711,-5.4724,-5.4738,-5.4785,-5.4791,-5.4847,-5.4848,-5.4923,-5.4917,-5.4913,-5.4911,-5.4957,-5.4952,-5.511,-5.513,-5.4999,-5.5001,-5.5002,0,-5.4489,-5.4534,-5.4568,-5.4596,-5.4614,-5.4659,-5.4687,-5.4688,-5.4718,-5.4756,-5.479,-5.4836,-5.4873,-5.495,-5.4965,-5.5007,-5.5,-5.5053,-5.5006,-5.5005,-5.4998,-5.4995,-5.4998,-5.5061,-5.5062,-5.5063,-5.5064,0,-5.4607,-5.461,-5.465,-5.4693,-5.4726,-5.476,-5.4791,-5.4815,-5.482,-5.4854,-5.4903,-5.4932,-5.4989,-5.5034,-5.5077,-5.5093,-5.5079,-5.508,-5.5092,-5.5092,-5.5087,-5.5088,-5.4935,-5.5075,-5.5074,-5.5073,-5.5073,-5.5072,-5.4691,-5.473,-5.476,-5.4805,-5.483,-5.4859,-5.4897,-5.4911,-5.4952,-5.4998,-5.4997,-5.5051,-5.508,-5.5135,-5.5155,-5.5197,-5.5179,-5.5198,-5.5202,-5.5206,-5.521,-5.5082,-5.5205,-5.5204,-5.5204,-5.5204,-5.5204,0,-5.4807,-5.4826,-5.4868,-5.4913,-5.4948,-5.4934,-5.4969,-5.4999,-5.5046,-5.5076,-5.5113,-5.5168,-5.5213,-5.5232,-5.5276,-5.5305,-5.53,-5.5316,-5.5313,-5.5317,-5.5224,-5.5208,-5.532,-5.532,-5.532,-5.532,-5.532,-5.532,-5.4871,-5.4935,-5.4942,-5.5017,-5.5035,-5.5088,-5.5108,-5.5136,-5.5159,-5.5222,-5.5259,-5.5272,-5.5296,-5.5342,-5.5382,-5.5387,-5.5402,-5.5421,-5.5422,-5.5335,-5.5323,-5.5312,-5.5296,-5.5425,-5.5425,-5.5511,-5.5512,-5.5512]},{"header":{"parameterUnit":"m.s-1","parameterCategory":1,"la1":30.2991,"la2":30.254,"lo1":-89.0895,"lo2":-89.0444,"dy":0.0017,"dx":0.0017,"nx":28,"ny":28,"refTime":"2024-04-25T09:00:00:Z","depth":0,"parameterNumber":3,"parameterNumberName":"V-component_of_WINDS"},"data":[0,0,0,0,0,0,0,0,0,0,0,0,0,0,0,0,0,0,0,0,0,0,0,0,0,0,0,0,0,0,0,0,0,0,0,0,0,0,0,0,0,0,0,0,0,0,0,0,0,0,0,0,0,0,0,0,0,0,4.3594,4.3595,0,4.3667,4.3668,4.3669,4.366,4.3659,4.3658,4.3657,4.3726,4.3729,4.3732,0,0,0,0,0,0,0,0,0,0,0,0,0,4.3444,4.3447,4.3594,4.3595,4.3596,4.3667,4.3668,4.3669,4.366,4.3659,4.3657,4.3656,4.3725,4.3728,4.3732,0,0,0,0,0,0,0,0,0,0,0,0,0,4.3512,4.3448,4.3594,4.36,4.3602,4.3667,4.3668,4.3669,4.3661,4.3659,4.3657,4.3656,4.3724,4.3728,4.3732,4.3794,0,0,4.3746,4.3748,0,0,0,0,0,0,0,0,4.3508,4.3517,4.3599,4.36,4.3602,4.3653,4.364,4.3711,4.3661,4.3638,4.3657,4.3655,4.3703,4.3709,4.3726,4.3797,4.38,4.3746,4.3749,4.3751,4.3752,0,0,0,0,0,0,0,4.3503,4.3514,4.3623,4.36,4.3602,4.3598,4.3606,4.3654,4.3679,4.364,4.364,4.3649,4.3703,4.3722,4.3728,4.3801,4.3746,4.375,4.3753,4.3754,4.3928,4.393,0,0,0,0,0,0,4.3498,4.351,4.3621,4.3625,4.355,4.3602,4.3611,4.3638,4.3679,4.3683,4.365,4.3648,4.3715,4.3722,4.373,4.3805,4.3751,4.3755,4.3757,4.3926,4.3928,4.393,0,0,0,0,0,0,4.3495,4.3508,4.3618,4.3568,4.3582,4.3607,4.3637,4.364,4.3659,4.3686,4.369,4.3665,4.3714,4.3724,4.3779,4.3808,4.3757,4.3761,4.3924,4.3927,4.3929,4.3957,0,0,0,0,0,0,4.349,4.3507,4.3531,4.3568,4.3584,4.3667,4.3639,4.3643,4.3667,4.3665,4.3701,4.3705,4.3713,4.3772,4.3783,4.3813,4.3764,4.3921,4.3925,4.3928,4.3953,4.396,4.3966,0,0,0,0,0,4.3485,4.3534,4.3532,4.3546,4.3616,4.3668,4.3677,4.3687,4.367,4.3694,4.3712,4.3704,4.3803,4.3778,4.379,4.3821,4.3919,4.3924,4.3928,4.395,4.3959,4.3966,0,0,0,0,0,0,4.3497,4.3539,4.3537,4.3601,4.3631,4.3667,4.3698,4.3696,4.373,4.3727,4.3736,4.3744,4.38,4.3816,4.3788,4.3884,4.3859,4.3866,4.3871,4.3879,4.3886,4.388,4.3768,0,0,0,0,0,4.3508,4.3549,4.3582,4.3635,4.3651,4.3672,4.3695,4.37,4.3731,4.3744,4.3765,4.3794,4.3832,4.3857,4.3893,4.3956,4.3963,4.3983,4.399,4.3995,4.4001,4.4036,4.4045,4.3945,4.3945,4.3945,0,0,4.3529,4.3557,4.3582,4.3638,4.3663,4.3703,4.3682,4.3726,4.3756,4.375,4.3804,4.3821,4.3854,4.3914,4.3941,4.3929,4.403,4.4001,4.4004,4.4007,4.4041,4.4051,4.4059,4.3948,4.3948,4.3947,0,0,4.3589,4.3615,4.3662,4.3687,4.3725,4.3739,4.375,4.3787,4.3799,4.3853,4.385,4.3885,4.395,4.3974,4.3995,4.4066,4.406,4.4077,4.411,4.4144,4.4152,4.4159,4.4185,4.4194,4.4083,4.4083,4.4083,0,4.361,4.3673,4.3686,4.3731,4.3756,4.3754,4.3802,4.3825,4.3872,4.3889,4.3875,4.3958,4.398,4.4045,4.4063,4.408,4.4092,4.4073,4.4151,4.4158,4.4164,4.4189,4.4198,4.4085,4.4085,4.4085,4.4084,0,4.3698,4.3741,4.3775,4.3823,4.3852,4.3897,4.3916,4.3943,4.3946,4.3961,4.4017,4.4044,4.4086,4.4102,4.4105,4.4169,4.416,4.4149,4.4123,4.4176,4.4199,4.4208,4.4088,4.4087,4.4086,4.4086,0,0,4.3766,4.3822,4.3834,4.3857,4.3899,4.3932,4.3978,4.4022,4.4045,4.4077,4.4116,4.4172,4.4162,4.4185,4.4191,4.4221,4.4276,4.4206,4.4206,4.4218,4.4348,4.4356,4.4367,4.4273,4.4275,4.4276,4.4345,0,4.383,4.3914,4.3927,4.3999,4.404,4.404,4.408,4.411,4.4125,4.4161,4.4177,4.4217,4.4201,4.4215,4.4245,4.4263,4.4302,4.4258,4.4307,4.4309,4.4299,4.4379,4.4388,4.4452,4.4354,4.4356,4.4357,0,4.3916,4.3954,4.4031,4.407,4.4087,4.4123,4.4164,4.4199,4.4233,4.4242,4.427,4.4272,4.4318,4.4292,4.4356,4.4326,4.4347,4.4359,4.4362,4.4366,4.4336,4.4386,4.4472,4.4482,4.4371,4.437,4.4369,0,4.3959,4.4029,4.4084,4.4103,4.4149,4.4175,4.4195,4.4227,4.4253,4.4288,4.4305,4.4345,4.4366,4.4397,4.4409,4.4389,4.4473,4.4447,4.4481,4.4481,4.4498,4.4497,4.4589,4.4512,4.4512,4.4512,4.4512,0,4.4029,4.4076,4.4104,4.4138,4.4191,4.4206,4.4257,4.4276,4.4305,4.4342,4.4344,4.4378,4.4393,4.443,4.444,4.4492,4.4501,4.4509,4.4511,4.4509,4.4508,4.4523,4.4518,4.4514,4.4514,4.4513,4.4513,0,4.4085,4.4106,4.4167,4.4207,4.4218,4.4255,4.4288,4.4321,4.4337,4.4384,4.4395,4.442,4.4463,4.4479,4.4531,4.4538,4.4598,4.4596,4.4587,4.4587,4.4621,4.4617,4.4725,4.474,4.4653,4.4654,4.4655,0,4.4129,4.4166,4.421,4.4236,4.4258,4.4299,4.4326,4.4342,4.4369,4.4412,4.4439,4.4483,4.4518,4.4587,4.4609,4.4648,4.4648,4.4683,4.4653,4.465,4.4648,4.4646,4.465,4.4688,4.4689,4.469,4.469,0,4.4204,4.4213,4.4253,4.4297,4.4329,4.4364,4.4397,4.4418,4.4439,4.4469,4.4515,4.4543,4.4597,4.464,4.4682,4.47,4.4699,4.47,4.4709,4.4707,4.4701,4.4705,4.4602,4.4697,4.4696,4.4696,4.4695,4.4695,4.4255,4.4289,4.4326,4.437,4.4398,4.4429,4.4463,4.4484,4.4523,4.4569,4.4576,4.4624,4.4657,4.4713,4.4734,4.4772,4.4762,4.4776,4.478,4.4783,4.4786,4.4695,4.4779,4.4779,4.4779,4.4779,4.4778,0,4.4331,4.4355,4.4396,4.4445,4.4479,4.4477,4.4514,4.4543,4.4587,4.4619,4.4655,4.4707,4.4749,4.4775,4.4817,4.4842,4.4842,4.4852,4.485,4.4855,4.4792,4.4779,4.4851,4.4851,4.4851,4.4851,4.4851,4.4851,4.4374,4.4431,4.4444,4.4514,4.4538,4.4587,4.4609,4.4638,4.4664,4.4723,4.4759,4.4776,4.4805,4.485,4.4888,4.4894,4.4909,4.4921,4.4926,4.4867,4.4859,4.4852,4.484,4.4924,4.4924,4.4986,4.4987,4.4987]}]]